Hourly Weather Roundup
Issued by NWS Central Illinois

Home | Current Version | Previous Version | Text Only | Print | Product List | Glossary On
Versions: 1 2 3 4 5 6 7 8 9 10 11 12 13 14 15 16 17 18 19 20 21 22 23 24 25 26 27 28 29 30 31 32 33 34 35 36 37 38 39 40 41 42 43 44 45 46 47 48 49 50
000
NZUS43 KILX 252210
HWRILX

Area Weather Roundup
National Weather Service Lincoln IL
500 PM CDT FRI MAY 25 2018

NOTE:  "FAIR" indicates few or no clouds below 12,000 feet, with
       no sigificant weather and/or obstructions to visibility.


CITY           SKY/WX    TMP DP  RH WIND       PRES   REMARKS
Bloomington    FAIR      76  68  76 N16       29.82F
Champaign      PTSUNNY   91  56  30 S13G20    29.81F HX  89
Danville       FAIR      89  58  34 S8        29.81F HX  88
Decatur        FAIR      87  62  43 S10       29.80F HX  87
Effingham      FAIR      86  65  48 SE9       29.84S HX  88
Flora          PTSUNNY   85  67  53 S18       29.86R HX  88
Galesburg      FAIR      75  68  79 SE5       29.80F
Jacksonville   TSTM      70  68  95 N6        29.84R
Lacon          FAIR      74  69  83 CALM      29.80F
Lawrenceville  PTSUNNY   88  61  40 S21G26    29.85R HX  88
Litchfield     CLOUDY    83  61  47 S20       29.82R HX  84
$$


CITY           SKY/WX    TMP DP  RH WIND       PRES   REMARKS
Lincoln        PTSUNNY   82  67  60 N7        29.79F HX  85
Macomb         CLOUDY    77  71  80 E10       29.83S
Mattoon        FAIR      86  66  51 S8        29.82F HX  88
Mt Carmel AP   FAIR      84  66  53 S10       29.85R HX  86
Olney-Noble AP FAIR      86  57  37 S12G17    29.86R HX  85
Paris AP       FAIR      89  58  35 S10       29.84F HX  87
Peoria         FAIR      75  71  87 E6        29.81F
Pontiac        LGT RAIN  75  71  87 W10       29.85R
Rantoul        FAIR      91  57  31 S12       29.81F HX  89
Robinson       FAIR      84  60  43 S7        29.84S HX  84
Springfield    FAIR      87  65  47 S12       29.78F HX  89
Taylorville    FAIR      85  64  48 S9        29.80F HX  87
$$

...REGIONAL REPORTS...


CITY           SKY/WX    TMP DP  RH WIND       PRES   REMARKS
Chicago O`Hare CLOUDY    88  55  32 SW8       29.78F HX  86
Kankakee       CLOUDY    87  55  34 SW7       29.80F HX  85
La Salle       FAIR      78  68  71 W6        29.82F HX  80
Moline         FAIR      79  67  66 CALM      29.77F HX  81
Mount Sterling CLOUDY    77  67  71 SW3       29.81F
Mount Vernon   TSTM      69  67  93 S9        29.91F
Pittsfield     CLOUDY    77  72  84 CALM      29.82F
Quincy         CLOUDY    77  68  73 W7        29.80F
Rockford       LGT RAIN  73  63  70 SW5       29.81F
$$


CITY           SKY/WX    TMP DP  RH WIND       PRES   REMARKS
Burlington     CLOUDY    82  66  58 W6        29.78F HX  84
Cedar Rapids   FAIR      83  66  56 SW10      29.76F HX  85
Des Moines     MOSUNNY   87  68  52 S14       29.73F HX  90
Kirksville     CLOUDY    82  67  60 SW8       29.81F HX  84
Ottumwa        CLOUDY    84  66  54 SW12      29.77F HX  86
St Louis       CLOUDY    81  66  60 SW17      29.82F HX  83
$$


CITY           SKY/WX    TMP DP  RH WIND       PRES   REMARKS
Terre Haute    FAIR      90  56  31 S7        29.83F HX  88
Evansville     LGT RAIN  82  68  62 SW13      29.88R HX  85
Indianapolis   FAIR      86  54  33 W6        29.86S HX  84
Lafayette      FAIR      87  54  32 S5        29.82F HX  85
Madison        PTSUNNY   84  65  52 SW8       29.76F HX  86
Milwaukee      CLOUDY    86  60  41 S12       29.76F HX  86
$$






USA.gov is the U.S. government's official web portal to all federal, state and local government web resources and services.